Regional Weather Roundup
Issued by NWS

Home | Current Version | Previous Version | Graphics & Text | Print | Product List | Glossary On
Versions: 1 2 3 4 5 6 7 8 9 10 11 12 13 14 15 16 17 18 19 20 21 22 23 24 25 26 27 28 29 30 31 32 33 34 35 36 37 38 39 40 41 42 43 44 45 46 47 48 49 50
000
ASUS43 KFSD 300102
RWRSD

WEATHER ROUNDUP FOR SOUTH DAKOTA
NATIONAL WEATHER SERVICE SIOUX FALLS SD
800 PM CDT SAT AUG 29 2015

NOTE: "FAIR" INDICATES FEW OR NO CLOUDS BELOW 12,000 FEET WITH NO
SIGNIFICANT WEATHER AND/OR OBSTRUCTIONS TO VISIBILITY.


SDZ001>005-009-010-012>017-300200-
NORTHWEST AND NORTH CENTRAL SOUTH DAKOTA

CITY           SKY/WX    TMP DP  RH WIND       PRES   REMARKS
MOBRIDGE       CLEAR     80  70  71 SE7       29.84F
$$

SDZ012>016-024>037-041>051-057-063-072>074-300200-
SOUTHWEST AND SOUTH CENTRAL SOUTH DAKOTA

CITY           SKY/WX    TMP DP  RH WIND       PRES   REMARKS
RAPID CTY ARPT PTCLDY    81  57  43 SE7       29.92F
PIERRE         CLEAR     82  65  56 SE10      29.87S
CUSTER         CLEAR     79  37  22 S3        30.12F
ELLSWORTH AFB  PTCLDY    82  54  37 S8        29.92S
PHILIP         CLEAR     82  65  56 E5        29.88S
PINE RIDGE     CLEAR     83  42  23 S9        29.97F HAZE
WINNER         FAIR      78  68  71 SE9       29.93F
$$

SDZ004>011-016>023-039-040-300200-
NORTHEAST SOUTH DAKOTA

CITY           SKY/WX    TMP DP  RH WIND       PRES   REMARKS
ABERDEEN       CLEAR     77  71  82 SE9       29.89S
WATERTOWN      CLEAR     71  66  84 S12       29.95S
BROOKINGS      CLEAR     70  63  78 S10       30.00S
$$

SDZ017-020-022-023-036>040-048>070-300200-
SOUTHEAST SOUTH DAKOTA

CITY           SKY/WX    TMP DP  RH WIND       PRES   REMARKS
SIOUX FALLS    MOCLDY    70  64  81 S9        29.99S
HURON          CLEAR     76  68  76 S13       29.92S
CHAMBERLAIN    CLEAR     75  70  82 SE8       29.92S
MITCHELL       CLEAR     74  68  81 SE10      29.95S
YANKTON        CLEAR     72  66  83 SE8       29.97S
$$

ABBREVIATIONS USED IN REMARKS
   TC - TEMPERATURE IN CELSIUS
  WCI - WIND CHILL INDEX
   HX - HEAT INDEX
  VSB - VISIBILITY




USA.gov is the U.S. government's official web portal to all federal, state and local government web resources and services.